This is the latest recevied weather packets stored in our database for station/object VE6HFD-WX. If no packets are shown the sender has not sent any weather packets the latest 10 day(s).
| Time | Temp. | Humidity | Pressure | Rain* | Wind** | Luminosity | Snow |
|---|---|---|---|---|---|---|---|
| 1788458381 | 17.78° C | 67% | 998.2 hPa | 0 mm | - | - | - |
| 1788458081 | 17.22° C | 67% | 998 hPa | 0 mm | - | - | - |
| 1788457751 | 17.22° C | 68% | 997.9 hPa | 0 mm | - | - | - |
| 1788457421 | 17.22° C | 69% | 998 hPa | 0 mm | - | - | - |
| 1788457091 | 16.67° C | 69% | 997.9 hPa | 0 mm | - | - | - |
| 1788456791 | 16.67° C | 71% | 998.1 hPa | 0 mm | - | - | - |
| 1788456461 | 16.11° C | 73% | 998.1 hPa | 0 mm | - | - | - |
| 1788456131 | 16.11° C | 72% | 998.1 hPa | 0 mm | - | - | - |
| 1788455801 | 16.67° C | 73% | 998 hPa | 0 mm | - | - | - |
| 1788455471 | 16.11° C | 74% | 997.8 hPa | 0 mm | - | - | - |
| 1788455171 | 15.56° C | 76% | 997.8 hPa | 0 mm | - | - | - |
| 1788454871 | 15.56° C | 78% | 997.7 hPa | 0 mm | - | - | - |
| 1788454571 | 15° C | 79% | 997.7 hPa | 0 mm | - | - | - |
| 1788454241 | 14.44° C | 82% | 997.7 hPa | 0 mm | - | - | - |
| 1788453941 | 14.44° C | 84% | 997.7 hPa | 0 mm | - | - | - |
| 1788453611 | 14.44° C | 86% | 997.6 hPa | 0 mm | - | - | - |
| 1788453311 | 13.89° C | 89% | 997.5 hPa | 0 mm | - | - | - |
| 1788452981 | 13.89° C | 91% | 997.5 hPa | 0 mm | - | - | - |
| 1788452681 | 13.33° C | 93% | 997.5 hPa | 0 mm | - | - | - |
| 1788452381 | 12.78° C | 94% | 997.5 hPa | 0 mm | - | - | - |
| 1788452081 | 12.22° C | 94% | 997.5 hPa | 0 mm | - | - | - |
| 1788451802 | 11.67° C | 94% | 997.5 hPa | 0 mm | - | - | - |
| 1788451451 | 11.11° C | 94% | 997.5 hPa | 0 mm | - | - | - |
| 1788451121 | 10.56° C | 94% | 997.6 hPa | 0 mm | - | - | - |
| 1788450821 | 10° C | 94% | 997.5 hPa | 0 mm | - | - | - |
* Rain latest hour (hover to see other rain measurements)
** Current wind speed in m/s (hover to see current wind gust speed)